Year,Month,Day,Hour,Minute,Value (Times are PST for windgust in km/hr)
2020,02,07,00,08,1.60
2020,02,07,00,09,1.60
2020,02,07,00,11,1.60
2020,02,07,00,12,3.20
2020,02,07,00,13,1.60
2020,02,07,00,14,1.60
2020,02,07,00,16,1.60
2020,02,07,00,18,1.60
2020,02,07,00,19,3.20
2020,02,07,00,20,3.20
2020,02,07,00,22,1.60
2020,02,07,00,23,1.60
2020,02,07,00,25,1.60
2020,02,07,00,26,4.80
2020,02,07,00,28,1.60
2020,02,07,00,29,1.60
2020,02,07,00,30,1.60
2020,02,07,00,32,1.60
2020,02,07,00,34,1.60
2020,02,07,00,35,1.60
2020,02,07,00,36,1.60
2020,02,07,00,59,1.60
2020,02,07,01,00,1.60
2020,02,07,01,01,1.60
2020,02,07,01,02,1.60
2020,02,07,01,23,1.60
2020,02,07,01,24,1.60
2020,02,07,10,48,16.10
2020,02,07,10,49,12.90
2020,02,07,10,50,19.30
2020,02,07,10,51,19.30
2020,02,07,10,52,20.90
2020,02,07,10,53,19.30
2020,02,07,10,54,17.70
2020,02,07,10,55,16.10
2020,02,07,10,56,9.60
2020,02,07,10,57,14.50
2020,02,07,10,58,17.70
2020,02,07,10,59,20.90
2020,02,07,11,00,17.70
2020,02,07,11,01,11.30
2020,02,07,11,02,14.50
2020,02,07,11,03,9.60
2020,02,07,11,04,11.30
2020,02,07,11,05,19.30
2020,02,07,11,06,8.10
2020,02,07,11,07,8.10
2020,02,07,11,08,14.50
2020,02,07,11,09,9.60
2020,02,07,11,10,17.70
2020,02,07,11,11,17.70
2020,02,07,11,12,14.50
2020,02,07,11,13,11.30
2020,02,07,11,14,9.60
2020,02,07,11,15,11.30
2020,02,07,11,16,9.60
2020,02,07,11,17,11.30
2020,02,07,11,18,12.90
2020,02,07,11,19,11.30
2020,02,07,11,20,9.60
2020,02,07,11,21,8.10
2020,02,07,11,22,8.10
2020,02,07,11,23,8.10
2020,02,07,11,24,8.10
2020,02,07,11,25,6.40
2020,02,07,11,26,11.30
2020,02,07,11,27,8.10
2020,02,07,11,28,9.60
2020,02,07,11,29,11.30
2020,02,07,11,30,9.60
2020,02,07,11,31,8.10
2020,02,07,11,32,9.60
2020,02,07,11,33,14.50
2020,02,07,11,34,11.30
2020,02,07,11,35,17.70
2020,02,07,11,36,12.90
2020,02,07,11,37,14.50
2020,02,07,11,38,16.10
2020,02,07,11,39,8.10
2020,02,07,11,40,8.10
2020,02,07,11,41,9.60
2020,02,07,11,42,8.10
2020,02,07,11,43,8.10
2020,02,07,11,44,9.60
2020,02,07,11,45,8.10
2020,02,07,11,46,8.10
2020,02,07,11,47,8.10
2020,02,07,11,48,16.10
2020,02,07,11,49,9.60
2020,02,07,11,50,20.90
2020,02,07,11,51,11.30
2020,02,07,11,52,17.70
2020,02,07,11,53,8.10
2020,02,07,11,54,9.60
2020,02,07,11,55,9.60
2020,02,07,11,56,9.60
2020,02,07,11,57,16.10
2020,02,07,11,58,11.30
2020,02,07,11,59,4.80
2020,02,07,12,00,6.40
2020,02,07,12,01,6.40
2020,02,07,12,02,12.90
2020,02,07,12,03,9.60
2020,02,07,12,04,14.50
2020,02,07,12,05,17.70
2020,02,07,12,06,16.10
2020,02,07,12,07,9.60
2020,02,07,12,08,11.30
2020,02,07,12,09,9.60
2020,02,07,12,10,9.60
2020,02,07,12,11,11.30
2020,02,07,12,12,1.60
2020,02,07,12,14,1.60
2020,02,07,12,17,3.20
2020,02,07,12,21,1.60
2020,02,07,12,27,3.20
2020,02,07,12,28,8.10
2020,02,07,12,29,4.80
2020,02,07,12,30,4.80
2020,02,07,12,32,6.40
2020,02,07,12,33,6.40
2020,02,07,12,34,3.20
2020,02,07,12,35,8.10
2020,02,07,12,36,8.10
2020,02,07,12,37,8.10
2020,02,07,12,38,9.60
2020,02,07,12,39,6.40
2020,02,07,12,40,11.30
2020,02,07,12,41,8.10
2020,02,07,12,42,11.30
2020,02,07,12,43,8.10
2020,02,07,12,44,6.40
2020,02,07,12,45,8.10
2020,02,07,12,46,8.10
2020,02,07,12,47,14.50
2020,02,07,12,48,8.10
2020,02,07,12,49,8.10
2020,02,07,12,50,8.10
2020,02,07,12,51,8.10
2020,02,07,12,52,4.80
2020,02,07,12,53,3.20
2020,02,07,12,54,3.20
2020,02,07,12,55,4.80
2020,02,07,12,56,3.20
2020,02,07,12,57,6.40
2020,02,07,12,58,3.20
2020,02,07,12,59,6.40
2020,02,07,13,00,4.80
2020,02,07,13,01,4.80
2020,02,07,13,02,6.40
2020,02,07,13,03,8.10
2020,02,07,13,04,4.80
2020,02,07,13,05,11.30
2020,02,07,13,06,9.60
2020,02,07,13,07,14.50
2020,02,07,13,08,9.60
2020,02,07,13,09,11.30
2020,02,07,13,10,9.60
2020,02,07,13,11,11.30
2020,02,07,13,12,11.30
2020,02,07,13,13,8.10
2020,02,07,13,14,4.80
2020,02,07,13,15,11.30
2020,02,07,13,16,19.30
2020,02,07,13,17,16.10
2020,02,07,13,18,11.30
2020,02,07,13,19,9.60
2020,02,07,13,20,6.40
2020,02,07,13,21,6.40
2020,02,07,13,22,8.10
2020,02,07,13,23,12.90
2020,02,07,13,24,12.90
2020,02,07,13,25,8.10
2020,02,07,13,26,16.10
2020,02,07,13,27,16.10
2020,02,07,13,28,11.30
2020,02,07,13,29,11.30
2020,02,07,13,30,9.60
2020,02,07,13,31,11.30
2020,02,07,13,32,8.10
2020,02,07,13,33,6.40
2020,02,07,13,34,3.20
2020,02,07,13,35,3.20
2020,02,07,13,36,1.60
2020,02,07,13,38,1.60
2020,02,07,13,39,6.40
2020,02,07,13,40,3.20
2020,02,07,13,41,3.20
2020,02,07,13,42,6.40
2020,02,07,13,43,3.20
2020,02,07,13,47,1.60
2020,02,07,13,48,4.80
2020,02,07,13,49,3.20
2020,02,07,13,50,3.20
2020,02,07,13,51,1.60
2020,02,07,13,52,4.80
2020,02,07,13,53,4.80
2020,02,07,13,54,3.20
2020,02,07,13,55,1.60
2020,02,07,13,56,3.20
2020,02,07,13,57,1.60
2020,02,07,14,01,1.60
2020,02,07,14,02,3.20
2020,02,07,14,04,1.60
2020,02,07,14,05,1.60
2020,02,07,14,06,1.60
2020,02,07,14,07,4.80
2020,02,07,14,08,4.80
2020,02,07,14,13,1.60
2020,02,07,14,14,1.60
2020,02,07,14,15,3.20
2020,02,07,14,16,4.80
2020,02,07,14,17,3.20
2020,02,07,14,18,3.20
2020,02,07,14,19,4.80
2020,02,07,14,20,4.80
2020,02,07,14,21,6.40
2020,02,07,14,22,3.20
2020,02,07,14,23,3.20
2020,02,07,14,24,1.60
2020,02,07,14,31,1.60
2020,02,07,14,32,1.60
2020,02,07,14,35,4.80
2020,02,07,14,36,3.20
2020,02,07,14,37,3.20
2020,02,07,14,38,8.10
2020,02,07,14,39,6.40
2020,02,07,14,40,3.20
2020,02,07,14,41,4.80
2020,02,07,14,42,3.20
2020,02,07,14,43,3.20
2020,02,07,14,46,3.20
2020,02,07,14,47,6.40
2020,02,07,14,48,6.40
2020,02,07,14,49,1.60
2020,02,07,14,51,1.60
2020,02,07,14,54,4.80
2020,02,07,14,55,1.60
2020,02,07,14,59,1.60
2020,02,07,15,01,1.60
2020,02,07,15,02,1.60
2020,02,07,15,03,1.60
2020,02,07,15,04,4.80
2020,02,07,15,05,3.20
2020,02,07,15,06,3.20
2020,02,07,15,07,4.80
2020,02,07,15,08,4.80
2020,02,07,15,09,3.20
2020,02,07,15,10,4.80
2020,02,07,15,11,4.80
2020,02,07,15,12,6.40
2020,02,07,15,13,6.40
2020,02,07,15,14,6.40
2020,02,07,15,15,6.40
2020,02,07,15,16,6.40
2020,02,07,15,17,9.60
2020,02,07,15,18,9.60
2020,02,07,15,19,4.80
2020,02,07,15,20,6.40
2020,02,07,15,21,6.40
2020,02,07,15,22,4.80
2020,02,07,15,23,9.60
2020,02,07,15,24,9.60
2020,02,07,15,25,9.60
2020,02,07,15,26,9.60
2020,02,07,15,27,9.60
2020,02,07,15,28,9.60
2020,02,07,15,29,9.60
2020,02,07,15,30,6.40
2020,02,07,15,31,6.40
2020,02,07,15,32,6.40
2020,02,07,15,33,9.60
2020,02,07,15,34,11.30
2020,02,07,15,35,6.40
2020,02,07,15,36,4.80
2020,02,07,15,37,4.80
2020,02,07,15,38,11.30
2020,02,07,15,39,9.60
2020,02,07,15,40,14.50
2020,02,07,15,41,11.30
2020,02,07,15,42,12.90
2020,02,07,15,43,9.60
2020,02,07,15,44,4.80
2020,02,07,15,45,6.40
2020,02,07,15,46,8.10
2020,02,07,15,47,11.30
2020,02,07,15,48,8.10
2020,02,07,15,49,6.40
2020,02,07,15,51,1.60
2020,02,07,15,52,1.60
2020,02,07,15,55,1.60
2020,02,07,15,57,1.60
2020,02,07,15,58,1.60
2020,02,07,16,00,1.60
2020,02,07,16,02,1.60
2020,02,07,16,03,3.20
2020,02,07,16,04,8.10
2020,02,07,16,05,6.40
2020,02,07,16,06,6.40
2020,02,07,16,07,6.40
2020,02,07,16,08,6.40
2020,02,07,16,09,8.10
2020,02,07,16,10,8.10
2020,02,07,16,11,8.10
2020,02,07,16,12,8.10
2020,02,07,16,13,3.20
2020,02,07,16,14,1.60
2020,02,07,16,18,1.60
2020,02,07,16,19,1.60
2020,02,07,16,20,1.60
2020,02,07,16,22,1.60
2020,02,07,16,23,4.80
2020,02,07,16,24,8.10
2020,02,07,16,25,1.60
2020,02,07,16,27,1.60
2020,02,07,16,28,3.20
2020,02,07,16,29,1.60
2020,02,07,16,32,1.60
2020,02,07,16,33,1.60
2020,02,07,16,35,1.60
2020,02,07,16,40,1.60
2020,02,07,16,41,1.60
2020,02,07,16,42,4.80
2020,02,07,16,43,4.80
2020,02,07,16,44,1.60
2020,02,07,16,45,3.20
2020,02,07,16,46,1.60
2020,02,07,16,48,1.60
2020,02,07,16,49,1.60
2020,02,07,16,50,4.80
2020,02,07,16,51,6.40
2020,02,07,16,52,3.20
2020,02,07,16,53,1.60
2020,02,07,16,54,1.60
2020,02,07,16,58,1.60
2020,02,07,16,59,8.10
2020,02,07,17,02,1.60
2020,02,07,17,11,1.60
2020,02,07,17,13,1.60
2020,02,07,17,16,3.20
2020,02,07,17,18,1.60
2020,02,07,17,20,1.60
2020,02,07,17,21,3.20
2020,02,07,17,22,1.60
2020,02,07,17,24,1.60
2020,02,07,17,25,1.60
2020,02,07,17,26,3.20
2020,02,07,17,27,3.20
2020,02,07,17,28,1.60
2020,02,07,17,29,3.20
2020,02,07,17,30,1.60
2020,02,07,17,31,1.60
2020,02,07,17,32,3.20
2020,02,07,17,33,1.60
2020,02,07,17,34,1.60
2020,02,07,17,35,1.60
2020,02,07,17,37,1.60
2020,02,07,17,41,1.60
2020,02,07,17,44,4.80
2020,02,07,17,45,8.10
2020,02,07,17,46,4.80
2020,02,07,17,47,1.60
2020,02,07,17,48,3.20
2020,02,07,17,49,6.40
2020,02,07,17,50,4.80
2020,02,07,17,51,6.40
2020,02,07,17,52,4.80
2020,02,07,17,53,3.20
2020,02,07,17,54,1.60
2020,02,07,17,58,1.60
2020,02,07,17,59,3.20
2020,02,07,18,00,3.20
2020,02,07,18,01,4.80
2020,02,07,18,02,6.40
2020,02,07,18,03,8.10
2020,02,07,18,04,3.20
2020,02,07,18,05,6.40
2020,02,07,18,06,3.20
2020,02,07,18,11,3.20
2020,02,07,18,12,1.60
2020,02,07,18,13,1.60
2020,02,07,18,14,1.60
2020,02,07,18,15,1.60
2020,02,07,18,16,1.60
2020,02,07,18,20,4.80
2020,02,07,18,21,3.20
2020,02,07,18,22,3.20
2020,02,07,18,23,4.80
2020,02,07,18,24,3.20
2020,02,07,18,25,1.60
2020,02,07,18,26,6.40
2020,02,07,18,27,3.20
2020,02,07,18,28,6.40
2020,02,07,18,29,6.40
2020,02,07,18,30,4.80
2020,02,07,18,31,4.80
2020,02,07,18,32,1.60
2020,02,07,18,33,1.60
2020,02,07,18,34,4.80
2020,02,07,18,35,4.80
2020,02,07,18,36,4.80
2020,02,07,18,37,4.80
2020,02,07,18,38,4.80
2020,02,07,18,39,3.20
2020,02,07,18,40,4.80
2020,02,07,18,41,3.20
2020,02,07,18,42,1.60
2020,02,07,18,44,1.60
2020,02,07,18,48,1.60
2020,02,07,18,49,1.60
2020,02,07,18,55,1.60
2020,02,07,18,56,1.60
2020,02,07,18,59,1.60
2020,02,07,19,06,1.60
2020,02,07,19,13,3.20
2020,02,07,19,14,1.60
2020,02,07,19,15,1.60
2020,02,07,19,16,1.60
2020,02,07,19,18,1.60
2020,02,07,19,19,1.60
2020,02,07,19,21,3.20
2020,02,07,19,29,1.60
2020,02,07,19,30,3.20
2020,02,07,19,31,1.60
2020,02,07,19,32,1.60
2020,02,07,19,33,1.60
2020,02,07,19,41,1.60
2020,02,07,19,42,3.20
2020,02,07,19,43,4.80
2020,02,07,19,44,4.80
2020,02,07,19,45,4.80
2020,02,07,19,46,3.20
2020,02,07,19,47,1.60
2020,02,07,19,49,1.60
2020,02,07,19,51,1.60
2020,02,07,19,52,1.60
2020,02,07,19,56,1.60
2020,02,07,19,57,1.60
2020,02,07,20,22,1.60
2020,02,07,20,23,1.60
2020,02,07,20,29,1.60
2020,02,07,20,39,1.60
2020,02,07,20,40,1.60
2020,02,07,20,41,1.60
2020,02,07,20,42,3.20
2020,02,07,20,43,3.20
2020,02,07,20,44,1.60
2020,02,07,20,45,1.60
2020,02,07,20,50,1.60
2020,02,07,20,51,1.60
2020,02,07,21,05,1.60
2020,02,07,21,06,1.60
2020,02,07,21,07,4.80
2020,02,07,21,08,3.20
2020,02,07,21,10,3.20
2020,02,07,21,11,1.60
2020,02,07,21,12,1.60
2020,02,07,21,14,1.60
2020,02,07,21,18,1.60
2020,02,07,21,26,3.20
2020,02,07,21,28,1.60
2020,02,07,21,29,1.60
2020,02,07,21,31,1.60
2020,02,07,21,32,1.60
2020,02,07,21,43,1.60
2020,02,07,21,44,1.60
2020,02,07,22,00,1.60
2020,02,07,22,01,1.60
2020,02,07,22,02,3.20
2020,02,07,22,03,3.20
2020,02,07,22,04,3.20
2020,02,07,22,05,3.20
2020,02,07,22,06,4.80
2020,02,07,22,07,3.20
2020,02,07,22,08,3.20
2020,02,07,22,09,3.20
2020,02,07,22,10,1.60
2020,02,07,22,11,3.20
2020,02,07,22,12,3.20
2020,02,07,22,13,3.20
2020,02,07,22,14,3.20
2020,02,07,22,15,3.20
2020,02,07,22,16,3.20
2020,02,07,22,17,1.60
2020,02,07,22,18,1.60
2020,02,07,22,22,1.60
2020,02,07,22,23,1.60
2020,02,07,22,24,3.20
2020,02,07,22,25,1.60
2020,02,07,22,29,3.20
2020,02,07,22,30,1.60
2020,02,07,22,31,1.60
2020,02,07,22,37,1.60
2020,02,07,22,45,1.60
2020,02,07,22,46,1.60
2020,02,07,22,47,6.40
2020,02,07,22,48,3.20
2020,02,07,22,49,3.20
2020,02,07,22,50,4.80
2020,02,07,22,51,4.80
2020,02,07,22,52,4.80
2020,02,07,22,53,1.60
2020,02,07,22,54,1.60
2020,02,07,22,55,1.60
2020,02,07,22,58,1.60
2020,02,07,23,00,1.60
2020,02,07,23,01,1.60
2020,02,07,23,02,1.60
2020,02,07,23,07,4.80
2020,02,07,23,08,4.80
2020,02,07,23,09,3.20
2020,02,07,23,10,3.20
2020,02,07,23,11,4.80
2020,02,07,23,12,4.80
2020,02,07,23,13,4.80
2020,02,07,23,14,3.20
2020,02,07,23,15,3.20
2020,02,07,23,16,3.20
2020,02,07,23,17,3.20
2020,02,07,23,21,1.60
2020,02,07,23,22,1.60
2020,02,07,23,23,3.20
2020,02,07,23,24,1.60
2020,02,07,23,25,3.20
2020,02,07,23,26,3.20
2020,02,07,23,27,4.80
2020,02,07,23,28,3.20
2020,02,07,23,29,3.20
2020,02,07,23,30,1.60
2020,02,07,23,31,4.80
2020,02,07,23,32,6.40
2020,02,07,23,33,4.80
2020,02,07,23,34,8.10
2020,02,07,23,35,9.60
2020,02,07,23,36,11.30
2020,02,07,23,37,19.30
2020,02,07,23,38,11.30
2020,02,07,23,39,11.30
2020,02,07,23,40,22.50
2020,02,07,23,41,20.90
2020,02,07,23,42,22.50
2020,02,07,23,43,14.50
2020,02,07,23,44,19.30
2020,02,07,23,45,9.60
2020,02,07,23,46,11.30
2020,02,07,23,47,9.60
2020,02,07,23,48,6.40
2020,02,07,23,49,14.50
2020,02,07,23,50,8.10
2020,02,07,23,51,9.60
2020,02,07,23,52,8.10
2020,02,07,23,53,8.10
2020,02,07,23,54,8.10
2020,02,07,23,55,9.60
2020,02,07,23,56,8.10
2020,02,07,23,57,14.50
2020,02,07,23,58,11.30
2020,02,07,23,59,11.30
